Location: Dąbrowa Miętka
(51.3714°N, 18.6370°E)
Time: 07:18:46
(UTC+02:00)

ISS - Visible Passes

Search period start: 27 May 2018 00:00
Search period end: 06 June 2018 00:00
Orbit: 402 x 407 km, 51.6° (Epoch: 27 May)

Date Brightness Start Highest point End Pass type
(mag) Time Alt. Az. Time Alt. Az. Time Alt. Az.
27 May -3.9 00:23:04 10° W 00:26:19 57° SSW 00:26:26 56° S visible
27 May -3.8 21:54:21 10° W 21:57:38 86° N 22:00:56 10° E visible
27 May -4.0 23:30:52 10° W 23:34:09 75° SSW 23:35:44 28° ESE visible
28 May -1.6 01:07:36 10° W 01:08:21 14° W 01:08:21 14° W visible
28 May -3.9 22:38:39 10° W 22:41:56 89° S 22:45:05 11° E visible
29 May -2.9 00:15:13 10° W 00:17:42 32° SW 00:17:42 32° SW visible
29 May -3.8 21:46:25 10° W 21:49:42 84° N 21:52:59 10° E visible
29 May -3.6 23:22:55 10° W 23:26:07 51° SSW 23:27:06 35° SSE visible
30 May -3.9 22:30:40 10° W 22:33:56 69° SSW 22:36:31 15° ESE visible
31 May -2.0 00:07:31 10° W 00:09:08 18° WSW 00:09:08 18° WSW visible
31 May -3.8 21:38:25 10° W 21:41:42 85° SSW 21:44:59 10° ESE visible
31 May -2.9 23:15:01 10° W 23:17:58 31° SSW 23:18:35 28° S visible
01 Jun -3.4 22:22:41 10° W 22:25:49 45° SSW 22:28:04 17° SE visible
02 Jun -1.2 00:00:33 10° WSW 00:00:41 10° WSW 00:00:41 10° WSW visible
02 Jun -2.0 23:07:21 10° W 23:09:39 18° SW 23:10:11 17° SSW visible
03 Jun -2.5 22:14:44 10° W 22:17:34 27° SSW 22:19:41 14° SSE visible
05 Jun -1.6 22:07:08 10° WSW 22:09:09 15° SW 22:11:09 10° S visible
